Location: Unspecified
(50.7693°N, 0.0000°E)
Time: 01:52:54
(UTC+00:00)

Transit 2A Rocket - Pass Details

Date: 31 October 2019
Orbit: 594 x 909 km, 66.7° (Epoch: 17 November)

Event Time Altitude Azimuth Distance (km) Brightness Sun altitude
Exits shadow 04:20:35 23° 348° (NNW) 1,337 6.2 -23.9°
Drops below altitude 10° 04:23:13 10° 22° (NNE) 1,989 7.5 -23.5°
Sets 04:25:44 0° 35° (NE) 2,871 8.6 -23.1°
